Location: Stara Lesna
(49.1528°N, 20.2911°E)
Time: 19:04:16
(UTC+02:00)

Cosmos 1943 Rocket - Pass Details

Date: 13 July 2020
Orbit: 811 x 845 km, 71.0° (Epoch: 10 August)

Event Time Altitude Azimuth Distance (km) Brightness Sun altitude
Rises 00:23:16 0° 324° (NW) 3,414 6.4 -18.9°
Reaches altitude 10° 00:26:02 10° 313° (NW) 2,473 5.3 -18.9°
Maximum altitude 00:30:46 28° 256° (WSW) 1,532 3.4 -19.0°
Enters shadow 00:32:48 22° 223° (SW) 1,742 3.4 -19.0°
